DC1NF-7 Weather Reports


Display with metric or nautical units.
time (UTC)temp
F
wind
direction
speed
MPH
gust
MPH
rain 1hr
in
rain 24hr
in
rain mn
in
humidity
%
barometer
mb
20260901222109 58 217 1.0 2.0 0.00 0.00 0.00 81 1017.8
20260901221104 59 239 1.0 2.0 0.00 0.00 0.00 80 1017.8
20260901220100 58 0.0 0.0 0.00 0.00 0.00 80 1017.9
20260901215056 59 0.0 0.0 0.00 0.00 0.00 81 1017.9
20260901214052 59 0.0 0.0 0.00 0.00 0.00 80 1017.9
20260901213050 59 225 0.0 2.0 0.00 0.00 0.00 79 1017.9
20260901212045 59 0.0 2.0 0.00 0.00 0.00 79 1017.9
20260901211042 60 231 1.0 2.0 0.00 0.00 0.00 78 1018.0
20260901210038 60 240 1.0 2.0 0.00 0.00 0.00 77 1017.9
20260901205034 61 0.0 0.0 0.00 0.00 0.00 76 1017.8
20260901204030 61 0.0 2.0 0.00 0.00 0.00 75 1017.8
20260901203028 62 215 1.0 2.0 0.00 0.00 0.00 72 1017.8
20260901202025 63 219 2.0 2.0 0.00 0.00 0.00 72 1017.8
20260901201020 63 232 2.0 2.0 0.00 0.00 0.00 72 1017.7
20260901200019 62 244 2.0 2.0 0.00 0.00 0.00 73 1017.7
20260901195114 62 244 2.0 4.0 0.00 0.00 0.00 73 1017.6
20260901194111 63 225 0.0 2.0 0.00 0.00 0.00 71 1017.5
20260901193109 64 0.0 0.0 0.00 0.00 0.00 68 1017.5
20260901192103 65 0.0 0.0 0.00 0.00 0.00 68 1017.4
20260901191058 65 213 0.0 2.0 0.00 0.00 0.00 67 1017.4
20260901190057 66 0.0 0.0 0.00 0.00 0.00 66 1017.4
20260901185054 66 113 0.0 2.0 0.00 0.00 0.00 63 1017.3
20260901184049 67 0.0 0.0 0.00 0.00 0.00 62 1017.1
20260901183045 67 0.0 0.0 0.00 0.00 0.00 63 1017.1
20260901182041 69 0.0 0.0 0.00 0.00 0.00 57 1017.1
20260901181036 69 0.0 0.0 0.00 0.00 0.00 53 1016.8
20260901180032 70 0.0 0.0 0.00 0.00 0.00 53 1016.8
20260901175028 70 180 0.0 2.0 0.00 0.00 0.00 53 1016.7
20260901174025 71 229 1.0 2.0 0.00 0.00 0.00 53 1016.7
20260901173020 72 248 0.0 2.0 0.00 0.00 0.00 51 1016.7
20260901172019 73 206 1.0 2.0 0.00 0.00 0.00 49 1016.6
20260901171115 73 219 2.0 4.0 0.00 0.01 0.00 49 1016.6
20260901170112 74 214 3.0 6.0 0.00 0.01 0.00 48 1016.6
20260901165108 74 203 2.0 6.0 0.00 0.01 0.00 47 1016.4
20260901164102 75 212 2.0 4.0 0.00 0.01 0.00 47 1016.5
20260901163100 74 247 4.0 9.0 0.00 0.01 0.00 48 1016.8
20260901162055 73 225 3.0 7.0 0.00 0.01 0.00 50 1016.8
20260901161052 73 240 2.0 4.0 0.00 0.01 0.00 50 1016.8
20260901160052 72 232 4.0 7.0 0.00 0.01 0.00 50 1016.9
20260901155047 74 245 3.0 7.0 0.00 0.01 0.00 49 1016.8
20260901154044 73 232 3.0 7.0 0.00 0.01 0.00 50 1016.9
20260901153040 73 226 5.0 11.0 0.00 0.01 0.00 50 1016.8
20260901152034 73 234 3.0 8.0 0.00 0.01 0.00 50 1017.0
20260901151030 75 212 3.0 7.0 0.00 0.01 0.00 48 1016.8
20260901150028 73 250 3.0 6.0 0.00 0.01 0.00 52 1016.9
20260901145025 74 263 2.0 4.0 0.00 0.01 0.00 51 1016.8
20260901144022 73 209 2.0 6.0 0.00 0.01 0.00 52 1016.8
20260901143016 73 227 2.0 4.0 0.00 0.01 0.00 51 1016.9
20260901142113 72 225 2.0 4.0 0.00 0.01 0.00 53 1017.0
20260901141108 73 262 3.0 7.0 0.00 0.01 0.00 52 1017.1
20260901140107 72 229 3.0 6.0 0.00 0.01 0.00 52 1017.2
20260901135102 72 245 3.0 7.0 0.00 0.01 0.00 53 1017.2
20260901134055 73 242 2.0 4.0 0.00 0.01 0.00 53 1017.2
20260901133053 73 223 2.0 4.0 0.00 0.01 0.00 51 1017.2
20260901132051 73 226 4.0 8.0 0.00 0.01 0.00 51 1017.2
20260901131048 75 205 4.0 8.0 0.00 0.01 0.00 51 1017.2
20260901130042 72 234 2.0 4.0 0.00 0.01 0.00 53 1017.4
20260901125039 71 229 2.0 6.0 0.00 0.01 0.00 54 1017.5
20260901124033 72 248 3.0 6.0 0.00 0.01 0.00 54 1017.4
20260901123030 73 240 3.0 6.0 0.00 0.01 0.00 53 1017.5
20260901122029 72 244 3.0 8.0 0.00 0.01 0.00 53 1017.5
20260901121024 74 241 4.0 8.0 0.00 0.01 0.00 51 1017.4
20260901120021 72 250 3.0 7.0 0.00 0.01 0.00 52 1017.5
20260901115018 72 260 4.0 7.0 0.00 0.01 0.00 53 1017.6
20260901114115 72 235 5.0 11.0 0.00 0.01 0.00 55 1017.7
20260901113110 71 227 4.0 9.0 0.00 0.01 0.00 55 1017.7
20260901112106 72 236 5.0 11.0 0.00 0.01 0.00 53 1017.8
20260901111104 72 252 6.0 11.0 0.00 0.01 0.00 53 1017.9
20260901110059 71 219 3.0 7.0 0.00 0.01 0.00 57 1017.9
20260901105056 71 202 5.0 11.0 0.00 0.01 0.00 58 1018.0
20260901104052 69 235 4.0 8.0 0.00 0.01 0.00 60 1017.8
20260901103048 69 268 6.0 14.0 0.00 0.01 0.00 60 1017.9
20260901102044 70 259 6.0 9.0 0.00 0.01 0.00 61 1017.9
20260901101040 69 239 5.0 13.0 0.00 0.01 0.00 62 1017.9
20260901100036 68 267 5.0 8.0 0.00 0.01 0.00 63 1017.9
20260901095032 68 251 6.0 9.0 0.00 0.01 0.00 63 1018.0
20260901094028 68 261 5.0 11.0 0.00 0.01 0.00 64 1017.9
20260901093025 68 228 5.0 11.0 0.00 0.01 0.00 64 1018.0
20260901092022 67 236 6.0 11.0 0.00 0.01 0.00 64 1017.9
20260901091019 67 226 5.0 13.0 0.00 0.01 0.00 65 1018.0
20260901090115 68 235 5.0 11.0 0.00 0.01 0.00 66 1018.1
20260901085109 68 239 6.0 11.0 0.00 0.01 0.00 65 1018.0
20260901084107 67 228 4.0 11.0 0.00 0.01 0.00 67 1018.0
20260901083103 66 213 6.0 11.0 0.00 0.01 0.00 68 1018.0
20260901082059 67 228 5.0 9.0 0.00 0.01 0.00 69 1018.0
20260901081055 66 217 3.0 7.0 0.00 0.01 0.00 71 1018.0
20260901080054 66 227 4.0 9.0 0.00 0.01 0.00 71 1017.9
20260901075049 66 198 3.0 6.0 0.00 0.01 0.00 73 1017.9
20260901074046 65 213 4.0 8.0 0.00 0.01 0.00 74 1017.8
20260901073042 64 226 4.0 8.0 0.00 0.01 0.00 76 1017.7
20260901072038 64 233 4.0 9.0 0.00 0.01 0.00 79 1017.6
20260901071033 63 196 3.0 6.0 0.00 0.01 0.00 83 1017.7
20260901070033 62 280 2.0 6.0 0.00 0.01 0.00 84 1017.6
20260901065028 61 196 3.0 7.0 0.00 0.01 0.00 86 1017.6
20260901064024 60 196 2.0 4.0 0.00 0.01 0.00 88 1017.6
20260901063019 59 180 2.0 4.0 0.00 0.01 0.00 89 1017.5
20260901062017 58 192 3.0 4.0 0.00 0.01 0.00 89 1017.6
20260901061113 58 201 1.0 2.0 0.00 0.01 0.00 90 1017.7
20260901060109 57 184 1.0 2.0 0.00 0.01 0.00 91 1017.5
20260901055105 56 180 0.0 2.0 0.00 0.01 0.00 93 1017.5
20260901054100 56 248 2.0 4.0 0.00 0.01 0.00 93 1017.5
20260901053055 56 257 1.0 2.0 0.00 0.01 0.00 93 1017.4
20260901052052 56 210 1.0 2.0 0.00 0.01 0.00 94 1017.5
20260901051052 56 240 1.0 2.0 0.00 0.01 0.00 94 1017.3
20260901050046 55 223 1.0 4.0 0.00 0.01 0.00 94 1017.4
20260901045043 55 217 2.0 2.0 0.00 0.01 0.00 94 1017.4
20260901044037 56 225 1.0 2.0 0.00 0.01 0.00 94 1017.4
20260901043034 56 236 1.0 2.0 0.00 0.01 0.00 94 1017.2
20260901042032 56 226 1.0 2.0 0.00 0.01 0.00 94 1017.2
20260901041027 56 252 1.0 4.0 0.00 0.01 0.00 94 1017.1
20260901040024 56 222 1.0 2.0 0.00 0.01 0.00 95 1017.0
20260901035021 56 0.0 0.0 0.00 0.01 0.00 95 1017.1
20260901034018 56 0.0 0.0 0.00 0.02 0.00 95 1017.0
20260901033116 56 180 1.0 2.0 0.00 0.02 0.00 94 1016.9
20260901032110 56 0.0 2.0 0.00 0.02 0.00 94 1016.9
20260901031106 57 203 0.0 2.0 0.00 0.02 0.00 94 1017.0
20260901025059 56 225 1.0 4.0 0.00 0.04 0.00 94 1016.8
20260901024056 56 207 1.0 2.0 0.00 0.04 0.00 93 1016.8
20260901023052 57 0.0 0.0 0.00 0.14 0.00 93 1016.7
20260901022049 57 197 1.0 2.0 0.00 0.22 0.00 93 1016.6
20260901021043 57 0.0 0.0 0.00 0.26 0.00 94 1016.6
20260901020040 57 180 0.0 2.0 0.00 0.26 0.00 94 1016.5
20260901015034 56 0.0 0.0 0.00 0.26 0.00 94 1016.5
20260901014030 57 0.0 0.0 0.00 0.26 0.00 94 1016.3
20260901013027 57 0.0 0.0 0.00 0.26 0.00 94 1016.3
20260901012024 57 0.0 0.0 0.00 0.26 0.00 93 1016.2
20260901011021 57 0.0 2.0 0.00 0.26 0.00 94 1016.1
20260901010017 57 0.0 0.0 0.00 0.26 0.00 93 1016.0
20260901005114 57 0.0 0.0 0.00 0.26 0.00 93 1016.2
20260901004108 58 0.0 0.0 0.00 0.26 0.00 92 1016.1
20260901003105 58 0.0 2.0 0.00 0.26 0.00 92 1016.0
20260901002103 58 113 0.0 2.0 0.00 0.26 0.00 92 1015.8
20260901001059 58 90 0.0 2.0 0.00 0.26 0.00 92 1015.9
20260901000056 59 0.0 2.0 0.00 0.26 0.00 91 1015.8
20260831235052 59 225 0.0 2.0 0.00 0.26 0.00 91 1015.7
20260831234051 59 0.0 0.0 0.00 0.26 0.00 91 1015.7
20260831233045 59 103 0.0 2.0 0.00 0.26 0.00 91 1015.7
20260831232040 59 0.0 0.0 0.00 0.26 0.00 91 1015.7
20260831231036 59 0.0 0.0 0.00 0.26 0.00 91 1015.7
20260831230033 59 0.0 0.0 0.00 0.26 0.00 90 1015.7
20260831225030 59 0.0 0.0 0.00 0.26 0.00 90 1015.8
20260831224027 59 0.0 0.0 0.00 0.26 0.00 90 1015.9
20260831223024 60 0.0 0.0 0.00 0.26 0.00 89 1015.8